Vorticity
3 2 3 3 4 2 2 0 1 6 3 7 10 6 4 8 7 2 3 -3 -9 -5 -3 -2 -0 -1 3 7 1 -3 -2 -1 1 2 2 -2 -2 1 2 3 4 5 1 1 4 7 6 3 2 3 6 6 4 2 1 2 3 3 4 5 5 3 6 9 10 9 7 7 6 5 4 2 3 5 6 4 3 3 3 3 5 7 7 8 9 9 7 6 5 5 5 5 6 6 6 7 7
4 3 3 3 3 2 3 2 1 5 5 6 7 4 -0 6 8 3 7 5 -1 -2 1 -1 -0 2 -1 1 -2 -3 -2 1 3 2 5 2 -0 1 2 3 3 3 4 6 8 8 6 2 1 0 3 5 3 3 2 2 3 3 4 4 5 4 4 6 9 11 9 8 7 6 5 3 3 5 7 5 3 3 3 2 3 5 6 7 9 9 8 7 6 5 5 5 5 6 6 6 6
3 4 3 3 3 3 4 2 3 3 5 7 5 3 -4 3 6 2 6 4 7 7 7 4 -2 -1 -4 0 3 2 1 1 1 1 6 5 1 -0 1 3 2 1 5 10 9 8 6 2 1 -1 1 4 3 2 2 1 3 3 4 4 4 4 4 5 7 11 10 8 8 7 6 4 3 4 6 6 4 2 3 2 2 4 5 6 8 9 9 9 7 6 6 6 5 5 6 5 5
4 4 3 3 4 3 4 2 4 3 5 7 5 5 -4 4 8 -1 4 4 8 7 5 7 3 -0 -5 -1 6 6 5 2 -2 -3 1 3 1 -0 2 2 3 4 6 12 11 7 5 1 1 0 -1 3 3 2 1 1 2 3 4 4 4 4 4 4 5 9 10 9 10 8 7 5 3 3 5 6 5 3 3 2 2 2 3 5 7 8 9 9 8 7 6 6 6 6 5 5 5
4 4 4 3 4 4 5 3 4 3 4 8 6 7 -4 2 15 2 1 4 4 2 -3 -0 2 4 1 -1 1 5 8 5 2 4 6 5 1 -0 1 1 5 8 5 8 11 8 5 0 -0 1 -0 2 3 2 1 1 1 2 3 4 4 4 4 4 5 7 8 10 11 9 7 7 4 3 4 6 6 4 3 3 2 2 2 4 5 6 8 9 9 8 7 6 6 6 6 6 6
4 4 5 3 5 4 5 3 4 3 3 9 7 7 -1 -3 13 7 2 4 2 -0 -4 -4 -5 -1 1 1 2 2 2 2 4 8 5 2 2 -1 -3 0 6 9 4 2 5 7 6 3 2 3 2 2 3 2 1 1 1 1 3 5 4 3 3 3 5 6 7 10 12 10 8 8 6 3 3 5 6 6 4 2 2 2 2 2 3 5 6 8 9 8 8 8 7 6 6 7 7
4 3 4 4 5 4 5 5 4 3 1 8 9 6 2 -3 7 9 4 5 4 2 2 2 1 1 1 3 4 2 1 1 1 0 -4 -3 1 -3 -6 1 5 5 4 3 3 5 6 5 5 5 4 3 3 2 2 2 2 2 2 4 4 2 2 2 4 5 6 9 12 11 9 8 7 4 3 4 5 6 6 3 2 3 2 2 2 3 4 6 7 8 9 8 8 7 7 7 7
3 3 4 3 5 5 5 5 4 5 1 4 10 6 1 -1 5 9 8 7 8 5 4 4 4 4 3 4 4 2 3 2 -1 -4 -5 -5 -7 -9 -5 -2 1 5 4 4 4 4 4 5 5 5 4 3 3 2 3 4 3 3 2 3 4 3 2 2 3 4 6 8 11 11 10 9 7 5 3 3 5 6 6 5 3 3 3 3 2 2 3 4 5 6 7 8 8 8 8 7 7
3 3 3 3 4 4 5 6 4 5 3 -0 6 7 1 -0 3 7 7 6 7 7 5 4 3 1 -1 -1 -1 -1 -1 0 1 -2 -6 -7 -7 -3 1 -3 -1 6 0 -3 1 2 2 3 3 2 1 1 2 3 3 4 4 3 2 2 4 3 3 2 2 4 5 7 10 11 11 10 8 6 4 3 4 5 6 6 4 3 3 3 3 3 2 3 4 5 5 6 7 8 8 8 7
3 3 3 3 3 3 4 6 6 4 4 0 2 7 6 1 -0 1 3 3 4 4 5 5 5 3 0 -1 -2 -3 -4 -4 -1 -1 -2 -3 0 5 6 0 -2 1 -5 -7 -3 -1 1 1 2 -0 -2 -2 -1 3 4 4 4 4 3 2 4 4 3 2 2 4 5 7 9 11 11 10 8 7 5 2 4 6 6 6 6 4 4 4 3 3 3 2 3 4 5 6 6 7 7 7 7
3 3 2 3 3 3 3 4 7 5 4 4 -0 3 8 5 2 -0 1 1 1 2 3 4 5 5 4 3 1 -1 -2 -3 -5 -2 2 3 5 6 6 2 -5 -6 -8 -9 -8 -7 -6 -4 -1 -1 -3 -3 -3 -1 3 4 4 5 3 2 3 3 3 2 2 3 4 7 9 10 11 11 9 7 6 2 3 6 6 6 6 6 5 4 4 4 4 3 2 3 4 5 6 7 7 7 7
3 4 2 4 4 3 4 4 7 6 5 5 -0 -0 4 6 8 6 3 2 1 2 3 3 2 2 4 6 6 4 2 2 1 1 3 6 6 3 1 1 -1 -2 -4 -4 -4 -5 -7 -8 -5 -2 -2 -1 -2 -2 1 4 5 5 3 2 3 2 3 2 1 2 4 6 8 10 10 11 9 7 6 3 3 6 6 6 7 6 6 5 5 4 4 4 3 2 2 4 6 7 8 7 7
4 3 2 4 4 2 4 4 4 7 7 4 -1 0 2 2 7 9 6 5 4 3 3 3 3 3 4 4 5 5 5 6 8 7 6 7 5 2 2 2 2 3 2 2 1 1 1 -1 -2 -1 1 2 1 -1 -0 3 5 5 4 3 2 2 2 2 1 2 4 5 7 9 10 10 10 7 6 3 3 6 6 5 6 7 7 6 5 4 4 5 4 2 2 2 4 7 8 8 7
5 4 3 5 4 0 3 4 4 6 6 4 1 2 1 0 2 4 6 7 6 5 5 4 3 4 3 3 3 4 5 5 2 1 2 2 2 3 3 1 2 3 3 3 2 2 3 4 4 2 3 5 4 3 -1 2 6 5 4 4 2 2 3 2 1 2 4 5 6 9 10 10 10 7 5 4 4 6 6 5 6 6 7 6 6 5 4 4 5 3 2 2 3 6 7 8 8
7 5 5 6 4 2 2 2 4 5 4 2 4 6 1 -1 2 0 1 4 4 4 6 6 4 3 3 4 4 3 2 1 -1 -1 0 -1 -1 1 0 1 2 2 1 1 2 2 1 4 5 2 3 6 6 7 3 3 7 6 4 4 3 4 3 2 2 3 4 5 6 9 10 10 9 7 4 5 4 5 6 5 6 7 7 7 6 6 5 4 5 4 3 2 2 5 7 8 8
9 7 7 7 5 5 3 1 3 5 4 -1 2 10 4 -2 2 1 -2 -0 1 1 3 4 3 3 4 4 5 4 4 4 5 5 6 5 5 4 2 2 1 0 0 1 2 1 1 2 2 0 2 5 5 7 6 6 8 7 5 4 4 4 3 3 3 4 4 5 6 9 10 9 8 6 4 5 5 6 6 5 6 7 7 7 7 6 5 4 5 5 3 3 2 4 6 7 8
10 9 9 8 7 7 6 4 3 2 3 -0 -2 7 6 -1 1 4 1 -1 -1 -1 0 0 -0 1 2 3 3 3 4 4 5 5 6 6 7 6 4 3 2 2 2 1 1 0 2 1 1 1 2 3 4 6 9 10 10 8 7 6 5 4 3 4 4 4 5 4 5 9 10 9 7 6 5 5 5 6 6 5 6 7 7 7 7 6 5 5 5 5 4 3 2 3 5 6 7
11 11 10 10 9 8 7 7 6 4 4 2 0 2 3 -0 -2 2 4 3 2 -0 -1 -1 -2 -2 -1 -1 -1 -1 0 1 2 2 3 2 3 4 5 5 3 2 2 1 1 1 2 2 3 3 2 3 2 6 12 12 11 10 9 8 6 5 5 5 4 5 5 4 6 8 10 9 7 6 6 6 6 6 6 5 6 7 7 7 7 6 5 5 6 5 5 3 3 3 5 6 6
9 10 9 10 11 11 10 10 9 8 7 6 6 4 1 -0 -2 -1 1 2 4 3 1 -1 -2 -2 -1 -0 -0 0 -0 -1 -2 -1 -0 -0 0 1 3 4 3 2 1 0 1 2 3 4 5 5 4 3 3 9 14 11 10 12 11 8 7 7 6 5 5 6 5 4 6 8 10 8 6 7 7 7 7 6 6 5 6 6 7 8 7 6 6 6 6 5 5 4 3 4 4 6 7
7 8 8 9 11 13 13 14 12 11 11 12 13 8 3 2 -0 -1 0 -1 -0 1 1 1 -0 -1 -1 -0 0 2 3 1 -1 -1 -1 -1 -1 -1 -0 2 2 1 1 2 2 3 4 4 5 5 4 4 6 12 13 9 10 12 9 8 8 8 7 6 6 6 5 4 6 9 10 8 5 7 8 8 7 7 6 5 6 6 7 8 7 6 7 7 6 5 5 4 4 3 4 6 8
4 6 6 7 10 12 14 14 15 16 16 17 16 9 7 8 4 4 3 -1 0 1 -1 -1 -0 -2 -3 -4 -4 -1 3 3 0 0 1 1 0 -0 1 2 3 4 4 5 5 4 3 2 3 3 5 10 12 13 10 8 11 12 9 10 9 7 6 6 7 6 4 5 7 9 9 7 6 7 8 7 7 7 5 5 5 6 6 7 7 7 7 7 6 5 5 4 3 3 5 7 8
4 4 4 5 7 9 11 13 15 17 18 20 18 13 13 12 10 11 7 4 6 5 2 1 0 -0 -2 -3 -4 -2 2 3 2 2 2 3 2 1 1 2 2 3 4 4 2 1 1 2 4 7 12 15 13 11 9 8 11 11 9 11 8 6 5 5 7 6 3 6 8 9 9 7 7 8 8 8 7 6 4 4 5 5 6 7 7 7 7 7 6 6 5 4 3 4 5 7 9
4 3 3 3 4 5 7 11 12 13 15 17 18 17 18 16 13 14 10 9 11 9 7 6 4 4 5 2 2 3 5 5 4 4 5 5 4 3 2 2 2 2 3 1 -1 -0 3 7 11 16 19 16 11 9 7 7 10 10 9 12 9 5 6 6 7 4 3 7 9 9 8 7 8 9 8 8 6 5 4 5 5 6 7 7 7 8 7 6 6 6 5 4 4 4 5 8 9
6 5 4 3 2 3 5 7 8 10 11 12 14 16 19 18 16 17 13 11 12 11 10 9 8 9 10 9 8 9 9 8 6 6 9 7 5 4 3 3 3 4 3 3 5 8 12 17 19 21 20 15 10 7 5 7 8 8 9 12 10 5 5 6 6 3 4 9 9 8 8 8 9 8 7 7 5 5 4 4 6 6 7 7 8 9 8 6 6 6 5 5 4 5 6 8 9
7 7 6 5 2 1 3 4 6 7 8 9 10 11 14 15 17 19 19 16 12 11 11 10 10 10 11 12 11 12 11 10 7 7 10 10 9 7 6 6 6 6 8 11 14 16 18 19 20 21 18 12 7 5 4 7 8 7 9 11 8 4 4 6 5 3 5 9 8 7 9 8 8 7 6 6 5 5 4 5 6 6 7 7 9 10 8 6 5 6 6 5 4 6 8 8 8
7 8 7 7 5 3 2 2 3 5 6 7 7 9 11 10 11 14 18 20 18 15 13 11 10 9 9 10 11 13 12 11 10 8 9 10 10 9 9 9 10 11 13 15 15 16 15 14 17 18 12 8 7 6 5 8 10 7 9 11 7 4 4 6 5 3 7 9 8 8 9 8 7 6 6 5 5 5 5 6 6 6 8 9 11 11 8 7 7 7 6 5 5 7 8 8 8
7 8 8 8 8 7 5 2 2 3 4 5 6 7 9 8 8 8 11 14 16 17 18 15 12 9 7 7 9 10 10 11 11 11 11 10 11 12 13 13 15 15 14 14 15 14 11 11 17 17 10 9 9 8 7 9 8 6 9 10 7 6 4 6 5 3 7 9 8 9 8 7 6 6 5 4 6 7 6 6 8 10 9 10 14 11 8 8 7 7 6 6 7 7 7 8 7
8 8 8 9 9 9 8 5 3 2 2 3 4 5 7 7 6 7 7 8 10 12 16 18 16 12 9 7 6 6 8 10 10 12 13 14 18 18 15 14 15 15 15 16 16 14 11 12 16 14 8 7 8 9 9 9 7 7 11 10 8 6 4 7 4 2 8 8 8 9 7 7 7 6 6 6 8 7 6 8 10 11 8 10 13 10 7 8 7 6 6 6 7 7 6 6 6
7 8 9 9 9 10 10 9 7 4 3 2 2 3 3 5 7 7 6 6 6 7 10 15 17 16 14 12 10 7 8 8 9 11 11 15 19 16 13 15 16 16 16 16 15 13 10 12 14 10 5 5 9 9 8 9 9 10 12 11 10 6 4 8 4 3 8 8 8 8 7 7 7 7 7 8 8 6 7 8 8 8 9 10 13 10 7 7 6 5 5 6 7 7 6 5 5
5 6 9 10 9 10 11 11 9 7 6 5 3 1 2 4 6 6 6 6 5 5 6 10 14 16 17 18 19 19 16 15 16 14 13 16 15 13 15 17 16 15 13 11 12 16 15 13 14 9 3 5 9 9 8 9 7 10 13 12 9 5 6 8 4 4 7 7 8 7 7 8 7 7 8 7 7 6 6 6 7 10 14 14 12 9 7 6 4 3 5 7 7 6 6 5 4
4 5 6 8 9 9 12 11 11 10 8 7 5 2 2 3 3 4 6 6 6 6 5 6 10 13 15 17 20 21 21 22 22 18 14 15 13 11 13 10 10 11 12 10 10 17 20 14 14 13 8 9 11 9 6 5 4 8 12 11 9 6 8 9 4 3 7 7 8 9 8 7 6 7 7 6 6 6 6 6 9 14 19 16 11 8 7 5 3 4 6 7 7 5 5 5 4
5 5 5 5 7 9 12 12 11 11 9 9 7 5 6 4 2 3 4 4 5 5 5 6 7 9 11 12 14 15 15 15 16 14 10 11 11 8 6 4 6 10 12 12 8 10 14 10 6 7 11 13 12 9 6 3 5 8 9 9 9 6 7 10 5 2 7 8 9 10 8 5 5 6 6 6 7 7 6 8 11 15 17 13 9 8 6 4 4 4 6 7 6 5 4 3 3
5 5 5 4 6 10 12 12 11 12 10 9 7 7 10 8 3 2 3 4 4 4 4 5 6 8 8 7 9 8 9 9 8 8 6 8 8 4 3 4 6 9 10 11 7 4 8 9 1 -1 9 14 11 10 9 7 7 8 7 7 8 6 6 8 6 5 8 9 9 8 5 4 5 6 6 6 7 7 8 11 11 10 12 10 7 7 5 4 4 4 6 7 6 5 4 3 2
7 4 4 3 4 8 11 13 13 12 10 10 9 9 11 9 7 5 3 3 3 4 4 4 6 6 6 5 5 5 6 8 7 5 4 5 5 3 4 6 7 8 8 9 8 6 9 13 11 6 8 11 7 6 8 9 9 8 8 8 7 9 12 10 7 7 8 8 8 6 3 4 5 6 7 6 7 8 9 13 12 8 9 9 7 6 4 4 3 5 7 6 5 4 4 3 3
9 6 5 4 4 7 10 13 14 13 12 10 10 11 12 11 9 7 5 3 2 3 3 3 5 4 4 4 2 2 7 10 8 4 2 3 4 4 6 7 8 7 6 7 8 9 10 12 16 11 4 3 4 4 6 9 9 9 11 9 4 9 18 13 6 6 7 6 6 5 3 4 5 7 7 5 6 9 9 8 7 6 8 8 6 5 4 3 4 6 7 6 4 4 3 4 5
9 9 8 6 6 8 11 13 13 13 13 11 11 13 15 13 10 9 7 5 3 2 2 2 3 3 3 3 1 2 7 8 4 1 2 4 5 6 7 7 7 6 5 6 7 8 9 10 12 11 6 4 6 8 8 9 12 13 13 10 3 10 18 10 4 5 6 6 6 6 5 5 6 6 6 6 6 8 7 3 2 4 6 8 7 4 3 3 6 7 6 5 4 3 3 5 7
8 8 8 6 5 6 9 11 12 12 11 11 12 14 15 14 13 11 8 8 5 2 2 2 2 3 3 2 2 3 5 3 0 0 2 3 5 6 7 7 6 6 6 7 7 7 9 9 8 9 10 8 8 9 7 8 14 15 12 10 6 11 15 6 2 5 6 7 7 6 5 5 6 6 6 6 6 8 8 6 3 1 3 8 7 4 3 4 6 7 6 4 3 3 4 6 8
8 8 9 8 6 5 6 9 10 10 10 10 11 13 16 15 15 14 9 9 9 5 4 3 2 3 3 2 2 3 3 1 1 3 3 2 5 6 6 7 6 5 6 6 6 7 10 12 10 10 11 11 9 10 9 5 10 14 12 12 10 11 13 5 3 6 7 9 7 5 5 5 7 6 6 6 6 9 9 8 6 3 6 10 8 4 4 5 6 6 5 4 4 5 7 8 8
9 8 8 9 7 4 4 7 8 8 10 9 9 13 17 16 15 15 13 10 11 9 5 4 4 3 4 4 3 4 3 3 5 5 4 4 7 6 6 8 6 5 4 5 7 8 9 10 10 10 10 10 8 10 12 5 5 8 5 10 14 13 11 4 5 8 8 8 7 4 5 6 7 7 5 6 8 10 10 10 9 9 11 12 7 4 4 5 6 4 3 4 6 8 9 7 6
9 8 8 8 7 5 3 6 8 7 8 9 8 11 15 14 13 15 16 13 12 11 8 6 5 5 5 5 4 3 2 3 6 6 7 7 7 6 7 8 6 5 5 5 7 6 10 14 13 11 8 8 7 8 11 9 10 8 3 11 17 12 8 5 6 7 6 7 5 3 5 7 8 7 5 6 10 11 11 12 9 8 10 9 5 4 5 6 5 2 3 6 7 8 7 5 5
9 7 9 10 10 7 4 4 7 7 7 7 7 8 11 11 11 14 17 18 17 15 11 7 7 7 7 6 4 4 4 4 5 6 7 7 6 6 7 6 5 6 5 5 5 5 15 23 19 12 9 9 9 7 7 8 9 7 7 15 16 10 8 6 6 5 5 7 5 4 7 8 7 4 5 8 10 11 13 11 6 7 9 6 5 5 6 5 3 3 6 8 8 6 5 5 6
9 7 9 11 11 8 5 3 5 6 5 6 5 5 7 8 9 13 15 19 22 21 18 13 10 8 7 7 5 4 5 5 6 6 6 6 7 8 7 6 7 7 5 4 5 4 11 19 17 14 12 10 11 8 6 7 7 8 12 14 12 9 6 6 6 6 7 8 8 8 7 7 5 4 6 9 10 11 14 10 6 9 9 5 5 6 4 3 3 6 8 9 7 5 5 6 6
10 9 9 11 10 7 4 2 3 6 5 4 4 3 5 6 5 6 8 10 14 15 18 19 16 10 6 4 3 5 6 6 6 6 5 6 8 9 8 8 8 6 4 4 5 5 9 13 13 16 12 7 12 10 7 11 9 10 17 15 10 9 6 5 5 5 8 10 9 8 7 5 3 5 8 8 11 14 13 8 7 9 7 4 5 4 3 3 5 9 9 8 6 6 6 6 6
9 9 11 14 14 10 5 2 2 5 6 3 4 3 3 3 2 2 3 4 5 7 13 20 25 25 19 11 7 7 8 7 7 6 6 6 6 7 7 8 6 4 5 6 4 5 8 9 10 16 9 1 10 11 5 12 13 10 16 15 9 8 6 4 4 5 7 7 5 5 5 5 4 6 9 10 15 15 8 5 8 8 5 5 5 3 3 5 7 9 8 7 7 6 6 7 8
9 10 12 16 17 12 7 4 1 3 5 4 2 1 1 1 1 1 1 0 2 5 10 16 22 27 27 22 15 12 10 9 8 7 6 6 6 6 6 5 5 5 5 5 5 5 8 10 13 17 13 5 11 11 5 16 19 6 6 10 7 8 8 7 7 7 6 6 5 5 4 4 4 6 12 15 16 11 5 7 8 6 4 5 4 3 4 6 8 8 7 7 6 6 7 7 7
11 10 11 14 15 12 6 5 2 1 3 3 2 1 1 0 0 0 0 0 1 3 6 9 12 17 23 25 21 16 14 12 11 10 9 10 9 8 7 6 6 5 5 6 6 5 8 11 11 14 15 11 12 11 8 17 17 1 -0 7 7 8 11 10 9 8 8 8 6 6 5 3 5 12 15 15 12 7 7 8 6 4 4 4 4 4 5 7 8 8 8 6 5 6 7 6 7
12 10 9 12 14 12 8 5 3 1 0 0 1 2 2 1 1 0 0 2 4 3 3 6 10 16 21 25 23 20 18 15 14 13 12 12 11 9 9 8 7 6 7 8 7 7 10 10 11 15 14 9 10 13 11 13 11 3 6 10 8 11 14 11 9 10 11 10 7 8 9 7 10 14 10 9 11 9 8 7 5 4 4 3 4 5 6 7 7 8 6 4 5 6 6 6 9
10 10 9 10 12 12 9 6 2 1 1 1 1 1 2 3 2 2 2 1 3 2 2 5 9 12 14 16 15 13 12 11 10 10 11 12 11 9 9 9 8 7 8 8 8 9 10 9 11 15 12 7 11 14 11 11 11 9 10 10 9 12 13 11 11 10 11 10 5 8 14 12 10 8 5 8 12 9 6 5 4 4 4 4 5 5 7 7 7 7 5 4 6 6 5 7 9
7 7 7 7 7 8 7 5 3 2 3 2 1 0 1 2 1 2 3 3 3 3 3 4 5 5 7 8 8 7 7 7 8 9 12 13 11 9 9 9 9 8 7 8 9 7 7 10 12 12 12 6 5 8 9 13 13 6 6 8 9 9 9 11 12 8 9 7 0 6 14 12 10 12 12 13 10 6 4 4 3 4 4 4 5 6 7 7 7 6 4 4 6 5 5 6 7
6 5 5 4 2 2 4 6 7 6 5 3 2 2 2 2 2 3 5 6 6 4 2 2 2 2 4 5 7 8 10 12 11 13 14 13 11 9 8 9 9 7 8 8 7 5 5 8 8 12 15 6 2 9 12 14 12 4 4 8 9 11 11 12 12 9 7 4 3 12 15 10 12 16 16 11 7 6 5 4 3 3 4 3 5 6 6 6 7 6 4 5 6 6 6 6 6
11 9 9 8 6 5 7 8 9 8 7 6 4 2 1 3 6 5 4 5 6 5 3 1 1 1 1 4 7 8 12 17 18 17 16 14 11 9 9 9 9 8 8 7 6 5 2 2 7 14 14 7 9 15 11 11 12 5 6 10 8 10 11 11 13 12 8 6 11 15 12 9 10 9 9 9 7 7 5 4 4 3 3 3 4 6 6 6 6 5 4 5 6 5 5 6 6
12 8 6 7 8 10 10 9 9 10 10 9 6 3 1 3 8 9 6 5 7 7 4 1 1 2 3 7 8 5 7 15 22 18 13 11 10 10 10 10 10 9 8 5 4 4 3 6 10 11 7 8 18 18 8 6 7 2 4 9 8 6 10 16 18 13 7 8 15 15 8 7 5 3 6 9 7 6 4 4 4 3 2 3 5 6 6 6 6 5 5 5 5 5 5 6 6
10 7 5 7 9 8 9 9 9 9 10 11 10 8 5 4 8 11 9 9 9 7 5 3 2 3 6 9 8 4 3 9 20 22 14 10 10 11 10 9 11 10 7 6 3 2 8 11 10 9 10 14 17 13 9 8 5 3 5 8 9 6 8 14 14 9 7 9 14 13 7 5 5 4 6 7 7 6 4 4 4 2 2 4 5 6 6 6 5 5 5 4 4 5 6 6 6
10 9 9 10 8 5 6 7 7 8 8 10 11 10 7 7 12 15 11 10 9 7 5 5 5 6 9 11 7 3 2 6 18 26 21 14 12 11 10 10 11 9 9 10 6 5 12 13 11 12 15 19 15 6 7 9 3 4 7 7 9 10 9 10 9 7 6 9 13 11 5 6 7 4 4 6 8 6 4 4 3 2 3 4 5 5 5 5 5 5 4 3 4 5 6 6 6
9 10 10 8 6 5 6 5 6 7 8 9 10 10 8 9 15 18 14 12 11 8 6 7 9 7 5 8 8 5 8 14 20 23 18 13 10 8 9 10 9 9 10 12 12 13 16 15 15 14 12 18 20 11 9 11 5 4 7 7 8 8 7 11 11 6 4 9 14 10 6 10 10 5 3 7 9 6 4 3 2 2 4 4 5 5 5 5 5 5 3 2 4 5 6 7 7
7 8 8 6 6 8 7 4 5 7 8 9 8 9 9 9 15 19 15 13 11 8 8 8 7 4 2 10 21 25 26 24 17 12 8 6 6 6 8 8 7 7 11 20 27 22 13 15 19 14 11 14 15 10 12 14 10 6 6 8 10 7 7 12 9 4 8 14 13 9 10 13 10 5 5 8 8 5 4 3 2 3 4 4 5 5 5 6 5 4 2 2 5 6 7 7 8
5 5 6 4 5 7 6 5 5 6 8 8 7 8 8 9 15 18 15 12 9 8 9 7 5 5 7 13 20 24 22 14 6 3 4 6 9 11 12 10 7 9 12 24 33 22 10 17 17 5 7 13 11 8 9 10 10 8 9 11 9 7 10 10 4 4 12 14 10 11 13 10 6 5 7 9 7 5 4 3 3 4 4 4 4 4 5 6 5 3 1 3 6 7 7 7 8
8 8 7 5 4 5 6 6 5 5 8 9 7 6 7 10 15 17 15 12 10 10 7 5 5 6 7 8 10 10 9 8 7 8 10 13 17 19 19 15 12 14 17 21 23 14 10 18 14 1 3 10 10 9 7 8 10 13 15 11 6 8 11 7 4 10 15 13 10 11 9 5 5 7 8 8 6 5 4 4 4 4 4 4 4 5 6 6 4 2 3 5 7 7 8 7 8
Height
5859 5860 5861 5863 5864 5866 5868 5871 5873 5875 5876 5878 5879 5880 5881 5880 5881 5882 5884 5886 5887 5888 5889 5889 5889 5889 5890 5890 5891 5891 5891 5892 5893 5894 5895 5895 5895 5895 5895 5896 5896 5896 5896 5896 5896 5896 5896 5895 5895 5894 5894 5894 5893 5893 5892 5892 5891 5891 5891 5890 5889 5888 5887 5886 5885 5885 5885 5884 5884 5884 5884 5883 5883 5882 5881 5881 5880 5879 5878 5877 5875 5874 5873 5872 5871 5870 5869 5868 5868 5867 5866 5865 5864 5863 5862 5861 5861
5856 5857 5859 5860 5862 5864 5866 5869 5871 5873 5875 5877 5878 5879 5879 5879 5880 5881 5882 5884 5885 5886 5887 5887 5887 5887 5888 5889 5889 5890 5891 5892 5892 5893 5894 5894 5894 5894 5895 5895 5895 5895 5895 5895 5895 5895 5895 5894 5894 5894 5894 5894 5893 5893 5892 5892 5891 5891 5890 5890 5889 5888 5887 5886 5886 5885 5885 5885 5884 5884 5884 5884 5883 5882 5881 5881 5880 5879 5878 5877 5876 5875 5873 5872 5871 5870 5869 5869 5868 5867 5866 5865 5864 5864 5863 5862 5861
5854 5855 5856 5858 5860 5862 5863 5866 5868 5870 5873 5875 5877 5878 5877 5877 5878 5879 5880 5882 5884 5884 5885 5885 5885 5886 5886 5887 5888 5890 5891 5891 5891 5893 5894 5894 5894 5894 5895 5895 5895 5894 5894 5894 5894 5894 5894 5894 5893 5893 5894 5894 5893 5893 5892 5892 5891 5891 5890 5890 5889 5888 5887 5886 5886 5885 5885 5884 5884 5884 5884 5883 5883 5882 5881 5881 5880 5879 5878 5877 5876 5875 5874 5873 5872 5871 5870 5869 5868 5867 5866 5865 5864 5864 5863 5862 5861
5851 5852 5854 5855 5858 5859 5861 5863 5865 5868 5872 5874 5876 5877 5876 5876 5877 5878 5878 5880 5882 5882 5883 5884 5884 5885 5885 5886 5887 5889 5890 5890 5891 5892 5893 5893 5893 5894 5895 5895 5894 5894 5894 5894 5893 5893 5893 5893 5893 5893 5893 5893 5893 5893 5892 5891 5891 5891 5890 5889 5889 5888 5887 5887 5886 5885 5885 5884 5884 5884 5884 5883 5883 5882 5881 5881 5880 5879 5878 5877 5876 5875 5874 5873 5872 5871 5870 5869 5868 5867 5866 5865 5864 5864 5863 5862 5861
5849 5850 5851 5853 5855 5856 5858 5861 5863 5866 5870 5873 5875 5875 5875 5875 5875 5876 5877 5878 5880 5880 5881 5882 5883 5883 5884 5885 5886 5887 5888 5889 5890 5891 5892 5893 5893 5893 5894 5894 5894 5893 5893 5893 5893 5893 5893 5893 5893 5893 5893 5893 5893 5892 5892 5891 5891 5890 5890 5889 5889 5888 5887 5886 5886 5885 5884 5884 5884 5884 5883 5883 5883 5882 5881 5880 5880 5879 5878 5877 5877 5876 5875 5874 5873 5872 5870 5869 5868 5867 5866 5865 5864 5864 5863 5862 5861
5846 5847 5848 5850 5852 5853 5856 5858 5860 5864 5868 5871 5873 5874 5874 5873 5873 5875 5876 5876 5878 5879 5880 5881 5881 5882 5883 5884 5885 5886 5887 5888 5889 5891 5891 5892 5892 5892 5893 5893 5893 5893 5892 5892 5892 5892 5892 5892 5892 5892 5892 5893 5893 5892 5891 5891 5890 5890 5890 5889 5888 5887 5887 5886 5885 5884 5884 5884 5883 5883 5883 5882 5882 5882 5881 5880 5879 5879 5878 5877 5876 5876 5875 5874 5873 5872 5871 5870 5869 5868 5867 5865 5864 5863 5863 5862 5861
5844 5845 5846 5848 5848 5850 5853 5855 5858 5863 5866 5869 5871 5872 5872 5872 5871 5873 5874 5875 5876 5877 5878 5878 5879 5880 5881 5883 5884 5884 5885 5886 5888 5889 5890 5891 5891 5892 5892 5892 5892 5892 5892 5892 5892 5892 5892 5892 5892 5892 5892 5892 5892 5891 5891 5890 5890 5890 5889 5889 5888 5887 5886 5886 5885 5884 5883 5883 5883 5883 5882 5882 5882 5881 5880 5879 5879 5878 5877 5877 5876 5876 5875 5874 5874 5873 5871 5870 5869 5868 5867 5865 5864 5863 5862 5861 5860
5840 5842 5842 5845 5845 5847 5849 5852 5857 5861 5864 5867 5870 5871 5870 5869 5869 5871 5872 5873 5874 5875 5876 5877 5877 5878 5880 5881 5882 5883 5883 5885 5886 5887 5888 5890 5890 5891 5892 5892 5892 5891 5891 5891 5891 5891 5891 5891 5891 5891 5891 5891 5891 5891 5890 5890 5889 5889 5889 5888 5887 5886 5886 5886 5885 5884 5883 5883 5883 5882 5882 5881 5881 5880 5879 5879 5878 5878 5877 5877 5876 5876 5875 5874 5874 5873 5872 5871 5869 5868 5867 5865 5864 5863 5862 5861 5860
5837 5838 5839 5841 5841 5843 5846 5849 5855 5859 5862 5865 5868 5870 5868 5867 5867 5869 5870 5871 5872 5872 5874 5875 5875 5877 5879 5879 5880 5881 5882 5883 5884 5886 5887 5888 5889 5890 5891 5891 5891 5891 5891 5891 5891 5891 5891 5890 5890 5890 5890 5890 5890 5890 5890 5889 5889 5888 5888 5887 5887 5886 5885 5885 5884 5884 5883 5883 5882 5881 5881 5880 5880 5879 5879 5878 5878 5877 5877 5876 5876 5875 5875 5874 5873 5873 5872 5871 5869 5868 5867 5865 5864 5863 5862 5861 5860
5833 5835 5836 5837 5837 5839 5842 5846 5852 5857 5861 5863 5865 5867 5865 5864 5866 5867 5869 5869 5870 5871 5872 5872 5873 5875 5876 5877 5878 5880 5880 5881 5883 5884 5886 5886 5887 5888 5889 5890 5890 5890 5890 5890 5890 5890 5890 5890 5889 5889 5889 5889 5889 5889 5889 5888 5888 5888 5887 5887 5886 5885 5885 5884 5884 5883 5883 5882 5881 5881 5880 5879 5879 5878 5878 5878 5877 5877 5876 5876 5875 5875 5874 5874 5873 5872 5872 5871 5869 5868 5867 5865 5864 5863 5861 5860 5859
5829 5831 5832 5833 5833 5835 5838 5844 5850 5855 5858 5859 5862 5864 5863 5862 5864 5866 5867 5868 5868 5869 5869 5870 5871 5872 5873 5875 5876 5878 5879 5880 5881 5883 5884 5884 5885 5885 5886 5887 5888 5889 5889 5889 5889 5889 5889 5889 5889 5888 5888 5888 5888 5888 5888 5887 5887 5887 5886 5886 5885 5885 5884 5883 5883 5883 5882 5882 5881 5880 5879 5878 5878 5877 5877 5877 5877 5876 5876 5875 5874 5874 5873 5873 5872 5872 5871 5870 5869 5868 5867 5865 5864 5863 5861 5860 5859
5825 5827 5829 5829 5829 5832 5836 5841 5847 5852 5854 5855 5859 5861 5862 5861 5861 5864 5865 5866 5866 5867 5868 5868 5869 5869 5870 5872 5874 5876 5877 5878 5879 5880 5881 5882 5882 5883 5884 5885 5886 5887 5887 5887 5887 5888 5888 5888 5888 5887 5887 5887 5887 5887 5887 5886 5886 5885 5885 5885 5884 5884 5883 5882 5882 5882 5881 5881 5880 5879 5878 5877 5877 5877 5877 5877 5876 5876 5875 5874 5874 5873 5872 5872 5871 5871 5870 5870 5869 5868 5867 5865 5864 5863 5861 5860 5859
5821 5823 5825 5824 5826 5829 5832 5836 5843 5848 5850 5853 5857 5859 5859 5858 5859 5861 5862 5863 5864 5865 5866 5865 5866 5867 5868 5870 5872 5874 5875 5876 5877 5878 5879 5879 5880 5880 5881 5882 5884 5884 5884 5885 5885 5886 5886 5886 5886 5886 5886 5886 5886 5886 5886 5885 5885 5884 5884 5884 5883 5883 5882 5881 5881 5881 5880 5880 5878 5878 5877 5876 5876 5876 5876 5876 5875 5875 5874 5874 5873 5872 5872 5871 5870 5870 5869 5869 5868 5867 5866 5865 5864 5862 5861 5860 5858
5817 5819 5821 5820 5821 5825 5827 5831 5838 5843 5846 5852 5856 5857 5856 5855 5857 5859 5860 5861 5862 5863 5863 5863 5863 5864 5866 5869 5871 5872 5873 5873 5873 5875 5876 5876 5877 5878 5879 5880 5881 5882 5882 5882 5883 5884 5885 5885 5885 5885 5885 5885 5885 5885 5885 5884 5884 5883 5883 5882 5882 5881 5881 5880 5880 5880 5879 5878 5877 5876 5876 5875 5875 5875 5875 5874 5874 5874 5873 5873 5872 5871 5871 5870 5869 5869 5868 5868 5867 5866 5865 5864 5863 5862 5861 5859 5858
5813 5815 5816 5815 5816 5819 5822 5827 5834 5838 5844 5851 5853 5854 5854 5853 5855 5856 5857 5858 5858 5860 5861 5861 5861 5863 5865 5867 5869 5870 5870 5870 5871 5872 5873 5875 5875 5876 5877 5878 5879 5879 5880 5881 5882 5882 5883 5883 5883 5883 5883 5884 5884 5884 5884 5883 5882 5882 5882 5881 5880 5880 5879 5879 5879 5878 5878 5877 5876 5875 5875 5874 5874 5874 5873 5873 5873 5873 5872 5872 5871 5870 5870 5869 5869 5868 5867 5867 5866 5865 5864 5864 5862 5861 5860 5859 5857
5809 5810 5811 5810 5810 5814 5818 5823 5830 5834 5841 5849 5851 5852 5851 5851 5852 5852 5853 5854 5855 5857 5859 5859 5859 5861 5863 5865 5867 5867 5868 5869 5870 5871 5872 5873 5874 5875 5875 5876 5877 5877 5878 5879 5880 5881 5881 5881 5881 5882 5882 5882 5882 5882 5882 5881 5880 5880 5880 5879 5878 5878 5878 5878 5878 5877 5877 5876 5875 5874 5874 5873 5873 5872 5872 5872 5872 5872 5871 5871 5870 5869 5869 5868 5868 5867 5866 5866 5865 5864 5863 5863 5862 5861 5859 5858 5857
5804 5804 5804 5804 5806 5810 5814 5820 5826 5831 5840 5848 5849 5849 5848 5848 5848 5847 5848 5849 5852 5854 5856 5857 5857 5859 5861 5862 5863 5864 5866 5868 5869 5870 5871 5872 5872 5873 5874 5874 5875 5875 5876 5877 5878 5879 5879 5880 5880 5880 5880 5880 5880 5880 5880 5879 5878 5878 5878 5877 5877 5877 5877 5877 5876 5876 5876 5875 5874 5873 5872 5872 5871 5871 5871 5871 5871 5871 5870 5869 5869 5868 5868 5867 5867 5866 5865 5865 5864 5863 5863 5862 5861 5860 5858 5857 5856
5798 5799 5799 5799 5802 5807 5813 5819 5825 5831 5838 5843 5845 5845 5844 5844 5843 5843 5844 5846 5848 5851 5852 5854 5855 5856 5857 5859 5860 5862 5864 5866 5867 5868 5869 5870 5870 5871 5872 5872 5873 5873 5874 5875 5876 5877 5877 5878 5878 5878 5878 5878 5878 5878 5878 5877 5876 5876 5876 5875 5875 5875 5875 5875 5875 5874 5874 5874 5873 5872 5871 5870 5870 5870 5870 5870 5870 5869 5869 5868 5868 5867 5867 5866 5865 5865 5864 5864 5863 5862 5862 5861 5860 5859 5857 5856 5855
5793 5795 5795 5796 5801 5807 5813 5819 5823 5827 5832 5837 5840 5840 5839 5839 5839 5839 5841 5843 5844 5846 5848 5850 5852 5853 5854 5856 5858 5860 5861 5863 5864 5865 5867 5868 5868 5869 5870 5870 5870 5871 5872 5873 5874 5875 5875 5876 5876 5876 5876 5876 5876 5876 5875 5875 5874 5874 5873 5873 5873 5873 5873 5873 5873 5873 5872 5872 5871 5870 5870 5869 5869 5869 5869 5869 5869 5868 5868 5867 5866 5866 5866 5865 5864 5864 5863 5863 5862 5861 5861 5860 5859 5858 5856 5855 5854
5789 5790 5790 5795 5802 5806 5811 5815 5819 5823 5827 5832 5834 5834 5834 5834 5835 5835 5837 5839 5840 5842 5844 5847 5849 5850 5851 5853 5855 5857 5858 5859 5861 5862 5864 5865 5866 5867 5867 5867 5868 5869 5870 5871 5871 5872 5873 5873 5874 5874 5874 5874 5874 5873 5873 5873 5872 5871 5871 5870 5870 5870 5871 5871 5871 5871 5871 5870 5869 5869 5868 5868 5868 5867 5868 5868 5867 5867 5866 5866 5865 5865 5864 5864 5863 5863 5862 5862 5861 5860 5859 5858 5857 5856 5855 5854 5853
5784 5786 5788 5795 5801 5804 5808 5811 5815 5819 5822 5826 5827 5827 5828 5830 5831 5832 5834 5835 5836 5838 5841 5843 5845 5847 5848 5850 5852 5853 5854 5856 5858 5860 5861 5863 5864 5864 5865 5865 5866 5867 5868 5868 5869 5870 5871 5871 5872 5872 5872 5871 5871 5871 5871 5870 5869 5868 5868 5868 5868 5868 5868 5869 5869 5869 5869 5868 5868 5867 5867 5866 5866 5866 5866 5866 5866 5866 5865 5864 5864 5864 5863 5862 5862 5861 5861 5860 5860 5859 5858 5857 5856 5855 5854 5853 5852
5780 5783 5788 5794 5797 5799 5804 5808 5811 5814 5816 5820 5821 5821 5824 5825 5826 5827 5829 5831 5832 5834 5837 5839 5841 5843 5845 5847 5848 5849 5851 5854 5856 5858 5859 5860 5861 5862 5862 5862 5863 5864 5865 5866 5866 5868 5868 5868 5869 5869 5869 5868 5868 5868 5868 5868 5867 5866 5866 5866 5866 5866 5866 5867 5867 5868 5867 5866 5866 5866 5865 5865 5865 5865 5865 5865 5865 5864 5864 5863 5862 5862 5861 5861 5860 5860 5859 5859 5858 5857 5857 5856 5855 5854 5853 5852 5851
5777 5780 5785 5789 5792 5796 5802 5805 5807 5809 5811 5814 5815 5817 5819 5820 5821 5823 5825 5827 5829 5831 5833 5835 5837 5839 5842 5844 5846 5848 5850 5852 5854 5854 5856 5858 5859 5859 5859 5859 5860 5861 5862 5863 5864 5865 5865 5865 5866 5866 5865 5865 5866 5866 5866 5865 5865 5864 5865 5865 5864 5864 5864 5865 5865 5865 5865 5864 5864 5864 5864 5864 5864 5864 5864 5864 5863 5863 5862 5861 5861 5860 5860 5859 5858 5858 5857 5857 5856 5856 5856 5855 5854 5853 5852 5851 5850
5773 5776 5781 5785 5788 5794 5799 5801 5803 5805 5807 5810 5811 5813 5815 5816 5817 5820 5822 5824 5826 5828 5830 5832 5834 5836 5838 5841 5843 5845 5847 5849 5850 5851 5853 5856 5856 5856 5855 5856 5858 5858 5859 5860 5861 5862 5862 5862 5862 5862 5862 5862 5863 5863 5863 5863 5863 5863 5863 5863 5862 5862 5862 5863 5863 5863 5863 5862 5862 5862 5863 5863 5863 5862 5862 5862 5862 5861 5860 5860 5859 5859 5858 5857 5857 5856 5856 5855 5855 5855 5854 5853 5852 5851 5851 5850 5849
5768 5772 5777 5781 5785 5791 5795 5796 5799 5801 5804 5806 5808 5809 5812 5813 5814 5817 5820 5822 5823 5825 5827 5829 5830 5832 5835 5838 5839 5842 5844 5846 5847 5848 5851 5853 5852 5852 5852 5854 5855 5856 5856 5858 5858 5858 5858 5859 5859 5859 5859 5860 5860 5860 5860 5860 5861 5861 5861 5860 5859 5860 5860 5861 5861 5861 5861 5861 5861 5861 5861 5861 5861 5861 5861 5861 5860 5859 5859 5858 5858 5857 5856 5856 5855 5854 5854 5854 5854 5854 5853 5852 5851 5850 5849 5849 5848
5764 5769 5773 5777 5781 5787 5790 5792 5795 5798 5800 5802 5804 5806 5809 5810 5812 5814 5817 5820 5820 5822 5824 5826 5827 5829 5831 5834 5836 5839 5841 5843 5844 5845 5848 5849 5849 5849 5850 5851 5852 5853 5853 5855 5855 5855 5855 5856 5856 5856 5856 5857 5857 5857 5858 5858 5858 5858 5858 5858 5858 5858 5859 5859 5860 5859 5859 5859 5859 5859 5860 5860 5859 5859 5859 5859 5858 5858 5857 5857 5856 5856 5855 5854 5853 5853 5853 5853 5853 5853 5852 5851 5850 5849 5848 5847 5846
5760 5765 5768 5772 5777 5782 5785 5787 5791 5794 5796 5799 5801 5803 5806 5808 5809 5812 5815 5817 5817 5819 5822 5823 5825 5826 5828 5831 5833 5836 5838 5839 5841 5843 5845 5845 5846 5847 5848 5848 5849 5850 5851 5851 5852 5852 5852 5853 5853 5853 5853 5853 5854 5854 5855 5855 5856 5856 5856 5856 5856 5856 5857 5858 5858 5858 5858 5857 5858 5858 5858 5858 5858 5858 5858 5857 5857 5856 5856 5856 5855 5854 5853 5852 5852 5851 5852 5852 5852 5851 5851 5850 5849 5848 5847 5846 5845
5756 5760 5764 5768 5772 5776 5779 5783 5786 5790 5793 5795 5797 5800 5803 5804 5807 5810 5812 5813 5814 5816 5819 5821 5822 5823 5826 5828 5831 5833 5835 5836 5838 5840 5842 5843 5844 5844 5844 5845 5847 5847 5848 5848 5849 5850 5849 5850 5850 5850 5850 5850 5851 5851 5852 5853 5853 5853 5853 5853 5853 5854 5855 5856 5856 5856 5856 5856 5856 5856 5856 5856 5857 5857 5856 5856 5855 5855 5855 5854 5854 5853 5852 5851 5850 5850 5850 5850 5850 5850 5849 5849 5849 5848 5846 5845 5843
5751 5755 5759 5764 5768 5771 5775 5779 5782 5785 5788 5791 5794 5796 5799 5801 5805 5808 5809 5810 5812 5814 5816 5819 5820 5821 5823 5826 5828 5830 5832 5834 5836 5838 5839 5840 5841 5840 5841 5843 5844 5845 5845 5845 5846 5846 5846 5847 5847 5847 5848 5847 5848 5849 5850 5850 5850 5850 5851 5851 5851 5852 5853 5854 5854 5854 5854 5854 5855 5855 5855 5855 5855 5855 5855 5854 5854 5854 5853 5853 5852 5851 5850 5849 5848 5848 5848 5848 5848 5848 5848 5848 5847 5846 5845 5844 5842
5747 5751 5756 5760 5763 5766 5771 5775 5778 5781 5784 5787 5789 5792 5796 5800 5802 5805 5806 5808 5809 5812 5814 5817 5818 5819 5821 5824 5825 5827 5829 5831 5833 5835 5837 5837 5837 5838 5839 5841 5842 5842 5842 5842 5843 5843 5843 5844 5844 5845 5845 5845 5845 5846 5847 5847 5847 5847 5848 5848 5849 5849 5850 5852 5852 5853 5852 5853 5853 5852 5852 5853 5854 5853 5853 5853 5853 5852 5852 5851 5850 5849 5848 5847 5847 5847 5847 5847 5847 5847 5847 5847 5846 5845 5844 5843 5841
5743 5748 5751 5755 5758 5761 5767 5771 5774 5777 5780 5783 5785 5787 5793 5797 5799 5801 5804 5805 5807 5809 5812 5814 5816 5818 5819 5821 5823 5825 5826 5828 5830 5832 5833 5834 5834 5836 5837 5838 5839 5840 5840 5840 5840 5840 5840 5841 5841 5842 5842 5842 5843 5844 5844 5844 5844 5844 5845 5845 5846 5847 5848 5850 5851 5851 5851 5851 5851 5850 5850 5851 5851 5851 5851 5851 5851 5851 5850 5849 5849 5848 5847 5846 5846 5846 5846 5846 5846 5846 5846 5845 5845 5844 5843 5841 5840
5738 5742 5745 5750 5753 5758 5765 5768 5770 5773 5776 5779 5780 5783 5790 5793 5795 5798 5801 5803 5805 5807 5809 5812 5814 5816 5817 5819 5820 5822 5824 5825 5827 5829 5830 5831 5832 5834 5835 5836 5837 5837 5837 5837 5837 5837 5838 5838 5838 5839 5839 5839 5840 5841 5841 5841 5841 5841 5842 5843 5844 5845 5846 5848 5849 5849 5849 5849 5848 5848 5849 5849 5849 5849 5850 5850 5850 5849 5848 5848 5847 5847 5846 5845 5845 5845 5845 5845 5845 5845 5844 5844 5843 5842 5841 5840 5839
5732 5736 5740 5746 5750 5756 5762 5763 5766 5769 5772 5774 5775 5779 5787 5790 5791 5795 5799 5801 5803 5805 5807 5810 5812 5813 5815 5816 5818 5819 5821 5823 5825 5827 5827 5828 5830 5832 5833 5834 5834 5835 5835 5835 5835 5835 5835 5835 5835 5836 5836 5837 5838 5838 5838 5838 5838 5838 5839 5840 5841 5842 5844 5845 5846 5847 5847 5847 5846 5846 5847 5847 5847 5847 5848 5848 5848 5847 5846 5846 5846 5845 5845 5844 5844 5844 5844 5844 5844 5843 5843 5842 5842 5841 5840 5839 5838
5727 5730 5735 5741 5746 5753 5757 5759 5763 5766 5768 5771 5772 5776 5783 5788 5788 5792 5796 5798 5800 5803 5805 5807 5809 5811 5812 5813 5815 5817 5819 5821 5823 5824 5825 5826 5828 5829 5830 5831 5832 5832 5832 5832 5832 5832 5832 5832 5833 5833 5834 5835 5835 5835 5835 5835 5835 5835 5836 5838 5838 5839 5841 5843 5844 5845 5845 5845 5844 5845 5845 5845 5845 5846 5847 5846 5846 5845 5845 5844 5844 5844 5844 5843 5843 5843 5843 5843 5842 5842 5841 5841 5840 5840 5839 5838 5837
5723 5727 5732 5738 5744 5750 5755 5758 5761 5764 5766 5768 5770 5773 5780 5785 5785 5788 5791 5794 5797 5800 5802 5804 5806 5807 5809 5810 5812 5814 5817 5819 5820 5821 5822 5824 5826 5827 5828 5829 5829 5829 5829 5830 5829 5829 5829 5829 5830 5830 5831 5832 5832 5833 5833 5832 5832 5833 5834 5835 5836 5837 5838 5840 5841 5842 5843 5842 5843 5843 5843 5843 5843 5844 5845 5845 5844 5844 5843 5842 5842 5842 5842 5842 5842 5842 5842 5841 5841 5840 5840 5839 5839 5838 5837 5836 5835
5720 5726 5731 5737 5744 5749 5754 5757 5759 5761 5763 5765 5767 5771 5777 5781 5782 5784 5787 5791 5794 5796 5798 5800 5802 5804 5805 5807 5810 5812 5815 5816 5817 5818 5821 5822 5823 5825 5825 5826 5827 5827 5827 5827 5827 5827 5827 5827 5827 5827 5828 5828 5829 5830 5830 5829 5829 5830 5831 5832 5833 5834 5835 5837 5838 5839 5840 5840 5841 5841 5841 5841 5841 5842 5843 5843 5843 5842 5841 5841 5841 5841 5841 5841 5841 5841 5840 5840 5839 5839 5839 5838 5837 5837 5835 5834 5833
5717 5723 5728 5734 5741 5747 5751 5754 5755 5758 5760 5761 5764 5768 5773 5777 5778 5780 5783 5786 5789 5791 5794 5797 5799 5800 5802 5805 5808 5810 5812 5813 5814 5817 5819 5820 5821 5822 5822 5823 5824 5824 5824 5824 5824 5824 5824 5824 5824 5824 5825 5825 5826 5826 5826 5825 5826 5826 5827 5829 5830 5831 5833 5834 5835 5837 5838 5839 5839 5839 5838 5838 5839 5840 5841 5841 5841 5840 5840 5839 5839 5840 5839 5839 5839 5839 5839 5838 5838 5838 5837 5836 5836 5835 5834 5833 5831
5714 5719 5725 5731 5738 5743 5747 5750 5751 5754 5756 5759 5761 5764 5769 5772 5774 5776 5778 5781 5785 5788 5791 5794 5796 5797 5800 5803 5805 5808 5809 5810 5812 5815 5816 5817 5818 5819 5819 5821 5821 5821 5821 5821 5821 5821 5822 5822 5822 5822 5822 5822 5823 5822 5822 5822 5823 5824 5825 5826 5827 5829 5830 5832 5833 5834 5836 5836 5836 5836 5836 5837 5838 5839 5839 5839 5839 5838 5838 5838 5838 5838 5838 5838 5837 5837 5837 5837 5837 5836 5836 5835 5834 5833 5832 5831 5829
5710 5716 5722 5728 5734 5739 5743 5746 5748 5750 5753 5756 5758 5761 5766 5769 5770 5771 5773 5777 5782 5785 5787 5789 5792 5794 5797 5800 5802 5804 5805 5807 5810 5812 5813 5814 5815 5815 5816 5817 5818 5818 5819 5819 5819 5819 5819 5819 5819 5819 5819 5819 5819 5818 5819 5821 5822 5823 5824 5824 5825 5827 5828 5829 5831 5832 5833 5833 5833 5833 5834 5835 5836 5837 5837 5837 5837 5836 5836 5836 5836 5836 5836 5836 5836 5836 5836 5836 5835 5835 5834 5833 5832 5831 5830 5829 5827
5706 5712 5718 5724 5731 5736 5739 5742 5745 5747 5751 5753 5756 5759 5763 5765 5765 5767 5770 5774 5777 5780 5783 5784 5787 5791 5794 5797 5798 5800 5802 5804 5806 5808 5809 5810 5811 5812 5813 5814 5815 5815 5816 5816 5816 5816 5816 5814 5814 5814 5815 5815 5815 5816 5817 5819 5820 5821 5822 5823 5823 5824 5826 5827 5828 5829 5830 5830 5831 5831 5832 5834 5835 5836 5836 5835 5835 5834 5834 5834 5834 5835 5835 5834 5834 5834 5834 5834 5834 5833 5833 5832 5831 5829 5828 5827 5825
5701 5707 5714 5721 5728 5733 5737 5740 5742 5745 5748 5751 5753 5756 5759 5760 5762 5764 5767 5770 5773 5776 5778 5781 5784 5788 5791 5793 5795 5797 5799 5801 5803 5804 5805 5806 5808 5809 5810 5810 5811 5812 5813 5813 5814 5813 5812 5812 5811 5810 5810 5812 5812 5813 5814 5815 5816 5818 5819 5820 5820 5822 5823 5824 5825 5826 5827 5828 5828 5829 5831 5833 5834 5834 5834 5834 5833 5832 5832 5832 5832 5833 5833 5833 5832 5832 5832 5832 5832 5832 5831 5830 5829 5828 5827 5825 5824
5698 5704 5711 5718 5724 5730 5733 5737 5739 5742 5745 5748 5750 5752 5755 5758 5760 5763 5765 5768 5771 5773 5775 5778 5782 5785 5787 5789 5793 5795 5797 5798 5799 5801 5802 5804 5805 5806 5807 5807 5808 5809 5810 5810 5811 5811 5810 5809 5810 5809 5807 5809 5810 5811 5811 5812 5813 5814 5815 5816 5817 5819 5820 5821 5823 5824 5825 5826 5827 5828 5830 5831 5832 5832 5832 5832 5831 5830 5830 5830 5831 5831 5831 5831 5831 5831 5831 5831 5831 5830 5830 5829 5828 5826 5825 5824 5822
5695 5702 5709 5715 5721 5726 5730 5733 5736 5739 5742 5745 5748 5750 5753 5757 5758 5761 5763 5765 5768 5770 5772 5775 5778 5781 5783 5787 5790 5791 5793 5795 5796 5797 5799 5801 5802 5803 5804 5804 5805 5806 5807 5808 5809 5809 5807 5807 5808 5808 5807 5808 5809 5809 5808 5808 5809 5810 5811 5812 5814 5816 5818 5820 5821 5823 5824 5825 5826 5827 5828 5829 5830 5830 5830 5829 5828 5828 5828 5829 5829 5829 5830 5830 5829 5829 5829 5829 5829 5829 5828 5827 5826 5825 5824 5822 5821
5692 5699 5707 5713 5719 5723 5727 5730 5733 5736 5740 5743 5744 5747 5751 5753 5755 5758 5760 5762 5765 5767 5770 5774 5777 5779 5782 5785 5787 5788 5790 5792 5793 5794 5796 5797 5799 5800 5800 5801 5802 5803 5804 5805 5806 5807 5806 5805 5805 5805 5806 5807 5807 5806 5806 5806 5807 5807 5808 5810 5812 5814 5816 5818 5820 5821 5822 5823 5824 5825 5825 5827 5828 5828 5827 5827 5826 5826 5827 5827 5827 5828 5828 5828 5828 5828 5828 5828 5827 5827 5826 5825 5824 5823 5822 5820 5819
5690 5697 5704 5710 5716 5720 5724 5727 5730 5733 5737 5739 5741 5744 5747 5750 5753 5755 5756 5759 5763 5767 5771 5773 5775 5777 5779 5781 5783 5785 5787 5789 5790 5791 5793 5794 5795 5796 5797 5798 5799 5800 5801 5803 5804 5805 5805 5804 5802 5801 5802 5803 5803 5803 5804 5804 5805 5806 5807 5809 5811 5812 5813 5815 5817 5818 5819 5820 5822 5823 5823 5825 5825 5825 5825 5824 5824 5825 5825 5825 5826 5826 5826 5826 5826 5826 5826 5826 5826 5825 5824 5823 5822 5821 5820 5818 5816
5689 5695 5701 5707 5712 5716 5720 5723 5726 5730 5733 5735 5738 5740 5743 5747 5751 5752 5753 5758 5763 5767 5770 5771 5772 5774 5775 5778 5780 5782 5784 5786 5787 5789 5790 5791 5792 5793 5794 5795 5796 5797 5799 5800 5802 5802 5803 5802 5799 5797 5798 5799 5801 5801 5801 5802 5804 5806 5807 5808 5809 5810 5811 5812 5814 5815 5816 5818 5819 5820 5821 5823 5823 5823 5822 5822 5823 5823 5823 5823 5824 5825 5825 5825 5825 5825 5825 5824 5824 5823 5822 5821 5820 5819 5818 5816 5815
5687 5693 5698 5703 5708 5712 5716 5719 5723 5726 5728 5731 5734 5736 5739 5743 5747 5749 5752 5758 5763 5766 5767 5768 5770 5772 5774 5775 5777 5779 5781 5782 5784 5785 5787 5788 5789 5790 5791 5793 5794 5795 5796 5798 5799 5800 5800 5797 5794 5796 5798 5799 5801 5801 5800 5801 5803 5805 5805 5806 5807 5808 5809 5810 5812 5813 5814 5816 5817 5818 5820 5821 5820 5820 5821 5821 5822 5822 5822 5822 5823 5823 5823 5824 5824 5824 5823 5823 5822 5821 5820 5819 5818 5817 5816 5815 5813
5684 5690 5694 5700 5704 5708 5712 5715 5719 5721 5723 5728 5731 5733 5735 5738 5743 5748 5752 5758 5761 5762 5765 5767 5768 5770 5772 5773 5774 5776 5777 5779 5781 5782 5784 5785 5786 5787 5789 5791 5792 5793 5794 5795 5796 5797 5795 5791 5793 5797 5799 5799 5800 5801 5799 5799 5801 5802 5803 5804 5805 5806 5808 5809 5810 5811 5812 5814 5815 5817 5819 5818 5817 5818 5819 5820 5820 5820 5820 5821 5821 5822 5822 5822 5822 5822 5821 5821 5820 5819 5818 5817 5816 5815 5814 5813 5812
5680 5685 5690 5695 5699 5703 5707 5710 5714 5715 5718 5725 5728 5730 5731 5733 5741 5747 5750 5755 5758 5760 5763 5765 5766 5767 5769 5770 5771 5773 5774 5776 5778 5780 5781 5782 5783 5785 5786 5788 5789 5790 5791 5792 5793 5793 5789 5789 5794 5797 5796 5796 5799 5800 5799 5797 5798 5799 5800 5802 5803 5804 5806 5807 5808 5809 5810 5812 5813 5816 5816 5816 5815 5816 5817 5818 5818 5818 5819 5819 5820 5820 5820 5821 5820 5820 5820 5819 5818 5817 5817 5816 5815 5814 5813 5812 5810
5675 5680 5685 5689 5693 5697 5701 5705 5709 5710 5714 5722 5726 5726 5726 5731 5740 5746 5748 5753 5756 5758 5761 5762 5764 5765 5766 5767 5768 5770 5772 5773 5775 5777 5778 5779 5781 5782 5783 5785 5786 5787 5789 5789 5790 5789 5786 5788 5793 5794 5793 5794 5796 5797 5797 5795 5795 5797 5798 5800 5801 5803 5804 5805 5806 5807 5808 5810 5812 5813 5814 5813 5814 5815 5816 5816 5816 5816 5817 5817 5818 5819 5819 5819 5819 5818 5818 5817 5816 5816 5815 5814 5813 5812 5811 5810 5809
5672 5677 5682 5687 5691 5695 5698 5701 5704 5707 5712 5720 5722 5722 5723 5729 5739 5745 5747 5750 5753 5755 5758 5760 5762 5763 5764 5766 5767 5768 5770 5771 5773 5774 5776 5777 5778 5780 5781 5782 5784 5785 5786 5787 5787 5786 5784 5785 5789 5790 5790 5792 5793 5794 5793 5793 5794 5796 5797 5799 5800 5801 5803 5803 5805 5806 5807 5809 5811 5811 5811 5812 5813 5814 5814 5814 5814 5815 5815 5816 5817 5817 5817 5817 5817 5817 5816 5815 5814 5814 5813 5812 5811 5810 5809 5808 5806
5672 5676 5681 5685 5690 5695 5698 5701 5704 5707 5712 5718 5719 5719 5721 5728 5739 5744 5744 5747 5750 5753 5756 5757 5760 5762 5763 5764 5765 5767 5768 5769 5771 5772 5773 5775 5776 5777 5779 5780 5781 5782 5783 5784 5784 5783 5781 5782 5785 5788 5789 5790 5790 5790 5791 5792 5793 5794 5796 5797 5798 5799 5801 5801 5803 5804 5805 5807 5809 5809 5809 5810 5812 5813 5813 5813 5813 5813 5814 5814 5815 5815 5816 5816 5816 5815 5814 5813 5813 5812 5811 5810 5809 5808 5806 5805 5804
5670 5674 5678 5683 5688 5692 5696 5700 5703 5707 5712 5717 5717 5718 5722 5729 5737 5741 5742 5745 5748 5750 5753 5756 5758 5760 5761 5763 5764 5765 5766 5768 5769 5770 5772 5773 5774 5776 5777 5778 5779 5779 5781 5782 5781 5780 5779 5778 5781 5785 5787 5788 5787 5787 5789 5790 5792 5792 5794 5795 5796 5798 5799 5800 5800 5802 5804 5806 5807 5807 5808 5809 5811 5811 5811 5811 5811 5812 5812 5812 5813 5813 5814 5814 5814 5813 5812 5811 5811 5810 5809 5808 5807 5806 5804 5803 5802
5666 5671 5676 5681 5685 5689 5693 5696 5699 5703 5709 5712 5714 5717 5721 5726 5734 5739 5740 5743 5746 5749 5752 5754 5757 5759 5760 5762 5763 5764 5765 5767 5768 5770 5771 5772 5773 5775 5776 5776 5776 5777 5779 5780 5779 5778 5777 5776 5777 5781 5784 5785 5784 5785 5787 5788 5789 5791 5792 5793 5794 5796 5797 5798 5799 5800 5802 5804 5805 5805 5806 5808 5809 5809 5809 5809 5810 5810 5810 5810 5811 5811 5812 5812 5812 5812 5810 5810 5809 5808 5807 5806 5805 5804 5802 5801 5800
5664 5669 5675 5680 5682 5685 5689 5692 5695 5700 5705 5709 5711 5714 5718 5723 5732 5737 5739 5742 5745 5748 5751 5753 5756 5758 5760 5761 5762 5763 5764 5766 5767 5769 5770 5771 5772 5773 5774 5774 5774 5775 5776 5776 5776 5777 5776 5773 5773 5777 5781 5783 5783 5783 5785 5786 5788 5789 5790 5791 5792 5794 5795 5796 5797 5799 5800 5802 5803 5803 5805 5806 5807 5807 5807 5808 5808 5808 5808 5808 5809 5810 5810 5811 5810 5810 5809 5808 5807 5806 5805 5804 5803 5802 5800 5799 5798
5660 5666 5672 5677 5680 5684 5687 5690 5693 5699 5704 5707 5709 5712 5715 5722 5731 5736 5737 5740 5743 5746 5749 5752 5755 5757 5759 5760 5761 5761 5762 5764 5766 5767 5768 5769 5770 5771 5771 5772 5772 5773 5773 5773 5774 5774 5774 5772 5772 5776 5779 5781 5781 5782 5783 5785 5786 5788 5789 5789 5790 5792 5793 5794 5796 5798 5799 5800 5801 5802 5803 5804 5805 5805 5806 5806 5806 5806 5806 5807 5807 5808 5808 5809 5809 5808 5807 5806 5805 5805 5804 5802 5801 5800 5798 5797 5795
5656 5661 5666 5672 5676 5681 5686 5689 5694 5698 5703 5705 5708 5710 5714 5722 5730 5734 5736 5738 5741 5744 5747 5750 5753 5755 5757 5758 5759 5759 5760 5762 5764 5765 5766 5766 5767 5768 5769 5769 5770 5770 5771 5771 5771 5772 5772 5772 5772 5775 5777 5779 5780 5781 5782 5783 5785 5786 5787 5788 5789 5790 5791 5793 5795 5796 5797 5798 5799 5800 5801 5802 5803 5803 5804 5804 5804 5804 5805 5805 5805 5806 5806 5807 5807 5806 5805 5804 5804 5803 5802 5801 5799 5797 5796 5794 5793
5658 5661 5664 5668 5672 5678 5683 5687 5692 5697 5701 5704 5706 5709 5714 5722 5729 5732 5734 5736 5739 5742 5745 5747 5750 5752 5754 5756 5757 5757 5758 5760 5761 5762 5763 5764 5765 5766 5767 5767 5768 5768 5769 5769 5770 5771 5771 5771 5772 5774 5776 5777 5778 5779 5780 5781 5782 5784 5785 5786 5788 5789 5790 5792 5793 5794 5795 5797 5797 5798 5799 5800 5801 5801 5802 5802 5803 5803 5803 5803 5803 5804 5805 5805 5805 5805 5804 5803 5802 5801 5800 5799 5797 5795 5794 5792 5791